Time,TemperatureF,DewpointF,PressureIn,WindDirection,WindDirectionDegrees,WindSpeedMPH,WindSpeedGustMPH,Humidity,HourlyPrecipIn,Conditions,Clouds,dailyrainin,SoftwareType,DateUTC
2013-04-17 00:00:00,53.8,50.0,30.16,SW,236,28.0,34.0,87,0.00,,,0.00,meteohub,2013-04-17 04:00:00,
2013-04-17 00:02:00,53.8,50.0,30.16,WSW,249,27.0,32.0,87,0.00,,,0.00,meteohub,2013-04-17 04:02:00,
2013-04-17 00:07:00,53.8,50.4,30.16,SW,235,24.0,32.0,88,0.00,,,0.00,meteohub,2013-04-17 04:07:00,
2013-04-17 00:12:00,53.8,50.4,30.16,WSW,239,21.0,32.0,88,0.00,,,0.00,meteohub,2013-04-17 04:12:00,
2013-04-17 00:17:00,53.8,50.4,30.16,SW,232,21.0,31.0,88,0.00,,,0.00,meteohub,2013-04-17 04:17:00,
2013-04-17 00:22:00,53.8,50.4,30.16,WSW,251,24.0,29.0,88,0.00,,,0.00,meteohub,2013-04-17 04:22:00,
2013-04-17 00:27:00,53.4,50.0,30.16,WSW,239,20.0,29.0,88,0.00,,,0.00,meteohub,2013-04-17 04:27:00,
2013-04-17 00:32:00,53.2,50.0,30.16,WSW,245,19.0,29.0,89,0.00,,,0.00,meteohub,2013-04-17 04:32:00,
2013-04-17 00:37:00,53.2,50.0,30.16,WSW,256,21.0,30.0,89,0.00,,,0.00,meteohub,2013-04-17 04:37:00,
2013-04-17 00:42:00,53.1,49.8,30.16,WSW,249,23.0,30.0,89,0.00,,,0.00,meteohub,2013-04-17 04:42:00,
2013-04-17 00:47:00,52.9,49.6,30.17,West,263,19.0,30.0,89,0.00,,,0.00,meteohub,2013-04-17 04:47:00,
2013-04-17 00:52:00,52.5,49.6,30.17,WSW,240,20.0,26.0,90,0.00,,,0.00,meteohub,2013-04-17 04:52:00,
2013-04-17 00:57:00,52.5,49.6,30.16,WSW,239,21.0,25.0,90,0.00,,,0.00,meteohub,2013-04-17 04:57:00,
2013-04-17 01:02:00,52.5,49.6,30.16,SW,234,20.0,26.0,90,0.00,,,0.00,meteohub,2013-04-17 05:02:00,
2013-04-17 01:07:00,52.5,50.0,30.16,WSW,240,18.0,26.0,91,0.00,,,0.00,meteohub,2013-04-17 05:07:00,
2013-04-17 01:12:00,52.5,50.0,30.16,WSW,243,20.0,26.0,91,0.00,,,0.00,meteohub,2013-04-17 05:12:00,
2013-04-17 01:17:00,52.7,50.2,30.16,WSW,251,17.0,26.0,91,0.00,,,0.00,meteohub,2013-04-17 05:17:00,
2013-04-17 01:22:00,52.9,50.4,30.16,WSW,250,19.0,23.0,91,0.00,,,0.00,meteohub,2013-04-17 05:22:00,
2013-04-17 01:27:00,52.9,50.4,30.15,WSW,244,18.0,23.0,91,0.00,,,0.00,meteohub,2013-04-17 05:27:00,
2013-04-17 01:32:00,52.7,50.2,30.15,WSW,253,19.0,23.0,91,0.00,,,0.00,meteohub,2013-04-17 05:32:00,
2013-04-17 01:37:00,52.7,50.2,30.15,West,264,17.0,23.0,91,0.00,,,0.00,meteohub,2013-04-17 05:37:00,
2013-04-17 01:42:00,52.9,50.5,30.15,WSW,253,17.0,22.0,92,0.00,,,0.00,meteohub,2013-04-17 05:42:00,
2013-04-17 01:47:00,52.9,50.5,30.15,West,270,18.0,21.0,92,0.00,,,0.00,meteohub,2013-04-17 05:47:00,
2013-04-17 01:52:00,52.7,50.4,30.15,West,262,14.0,21.0,92,0.00,,,0.00,meteohub,2013-04-17 05:52:00,
2013-04-17 01:57:00,52.9,50.5,30.15,West,260,15.0,21.0,92,0.00,,,0.00,meteohub,2013-04-17 05:57:00,
2013-04-17 02:02:00,52.9,50.5,30.15,WNW,287,15.0,20.0,92,0.00,,,0.00,meteohub,2013-04-17 06:02:00,
2013-04-17 02:07:00,52.9,50.5,30.15,West,268,16.0,19.0,92,0.00,,,0.00,meteohub,2013-04-17 06:07:00,
2013-04-17 02:12:00,52.9,50.5,30.15,West,264,18.0,19.0,92,0.00,,,0.00,meteohub,2013-04-17 06:12:00,
2013-04-17 02:17:00,52.9,50.5,30.15,West,278,15.0,19.0,92,0.00,,,0.00,meteohub,2013-04-17 06:17:00,
2013-04-17 02:22:00,52.9,50.5,30.15,West,274,15.0,19.0,92,0.00,,,0.00,meteohub,2013-04-17 06:22:00,
2013-04-17 02:27:00,53.1,50.7,30.14,West,264,14.0,19.0,92,0.00,,,0.00,meteohub,2013-04-17 06:27:00,
2013-04-17 02:32:00,53.1,50.7,30.14,WSW,258,19.0,20.0,92,0.00,,,0.00,meteohub,2013-04-17 06:32:00,
2013-04-17 02:37:00,53.2,50.9,30.14,West,259,19.0,20.0,92,0.00,,,0.00,meteohub,2013-04-17 06:37:00,
2013-04-17 02:42:00,53.2,50.9,30.14,West,264,15.0,21.0,92,0.00,,,0.00,meteohub,2013-04-17 06:42:00,
2013-04-17 02:47:00,53.2,50.9,30.15,West,266,15.0,21.0,92,0.00,,,0.00,meteohub,2013-04-17 06:47:00,
2013-04-17 02:52:00,53.1,50.7,30.15,West,260,17.0,21.0,92,0.00,,,0.00,meteohub,2013-04-17 06:52:00,
2013-04-17 02:57:00,53.1,50.7,30.14,West,267,17.0,19.0,92,0.00,,,0.00,meteohub,2013-04-17 06:57:00,
2013-04-17 03:02:00,53.1,50.7,30.14,West,262,19.0,20.0,92,0.00,,,0.00,meteohub,2013-04-17 07:02:00,
2013-04-17 03:07:00,52.9,50.5,30.14,WSW,252,15.0,20.0,92,0.00,,,0.00,meteohub,2013-04-17 07:07:00,
2013-04-17 03:12:00,52.7,50.4,30.14,WNW,292,13.0,20.0,92,0.00,,,0.00,meteohub,2013-04-17 07:12:00,
2013-04-17 03:17:00,52.5,50.2,30.14,West,266,13.0,20.0,92,0.00,,,0.00,meteohub,2013-04-17 07:17:00,
2013-04-17 03:22:00,52.5,50.5,30.14,West,276,14.0,18.0,93,0.00,,,0.00,meteohub,2013-04-17 07:22:00,
2013-04-17 03:27:00,52.5,50.2,30.14,West,269,14.0,16.0,92,0.00,,,0.00,meteohub,2013-04-17 07:27:00,
2013-04-17 03:32:00,52.3,50.4,30.14,West,264,14.0,15.0,93,0.00,,,0.00,meteohub,2013-04-17 07:32:00,
2013-04-17 03:38:00,52.3,50.4,30.14,WSW,242,12.0,15.0,93,0.00,,,0.00,meteohub,2013-04-17 07:38:00,
2013-04-17 03:43:00,52.3,50.4,30.14,WSW,243,12.0,15.0,93,0.00,,,0.00,meteohub,2013-04-17 07:43:00,
2013-04-17 03:48:00,52.3,50.4,30.14,WSW,252,10.0,15.0,93,0.00,,,0.00,meteohub,2013-04-17 07:48:00,
2013-04-17 03:53:00,52.3,50.7,30.14,WSW,255,9.0,14.0,94,0.00,,,0.00,meteohub,2013-04-17 07:53:00,
2013-04-17 03:58:00,52.5,50.9,30.14,West,271,7.0,14.0,94,0.00,,,0.00,meteohub,2013-04-17 07:58:00,
2013-04-17 04:03:00,52.3,50.7,30.14,West,268,6.0,13.0,94,0.00,,,0.00,meteohub,2013-04-17 08:03:00,
2013-04-17 04:08:00,52.3,50.7,30.14,West,274,8.0,12.0,94,0.00,,,0.00,meteohub,2013-04-17 08:08:00,
2013-04-17 04:13:00,52.5,50.9,30.14,West,274,8.0,9.0,94,0.00,,,0.00,meteohub,2013-04-17 08:13:00,
2013-04-17 04:18:00,52.7,51.1,30.14,West,269,7.0,9.0,94,0.00,,,0.00,meteohub,2013-04-17 08:18:00,
2013-04-17 04:23:00,52.7,51.1,30.14,West,274,7.0,9.0,94,0.00,,,0.00,meteohub,2013-04-17 08:23:00,
2013-04-17 04:28:00,52.9,51.3,30.13,West,271,8.0,9.0,94,0.00,,,0.00,meteohub,2013-04-17 08:28:00,
2013-04-17 04:33:00,52.9,51.3,30.13,West,269,7.0,8.0,94,0.00,,,0.00,meteohub,2013-04-17 08:33:00,
2013-04-17 04:38:00,52.9,51.4,30.14,NNW,328,11.0,11.0,95,0.00,,,0.00,meteohub,2013-04-17 08:38:00,
2013-04-17 04:43:00,50.9,48.9,30.15,North,355,17.0,17.0,93,0.00,,,0.00,meteohub,2013-04-17 08:43:00,
2013-04-17 04:48:00,50.0,48.4,30.15,North,355,12.0,22.0,94,0.00,,,0.00,meteohub,2013-04-17 08:48:00,
2013-04-17 04:53:00,49.6,48.0,30.15,North,354,7.0,22.0,94,0.00,,,0.00,meteohub,2013-04-17 08:53:00,
2013-04-17 04:58:00,49.1,47.5,30.15,North,354,6.0,19.0,94,0.00,,,0.00,meteohub,2013-04-17 08:58:00,
2013-04-17 05:03:00,49.1,47.7,30.15,NNW,330,5.0,18.0,95,0.00,,,0.00,meteohub,2013-04-17 09:03:00,
2013-04-17 05:08:00,49.3,47.8,30.15,NW,307,4.0,12.0,95,0.00,,,0.00,meteohub,2013-04-17 09:08:00,
2013-04-17 05:13:00,49.6,48.6,30.15,NW,323,5.0,8.0,96,0.00,,,0.00,meteohub,2013-04-17 09:13:00,
2013-04-17 05:18:00,50.2,49.1,30.15,NNW,332,3.0,8.0,96,0.00,,,0.00,meteohub,2013-04-17 09:18:00,
2013-04-17 05:23:00,50.4,49.3,30.14,NNW,343,2.0,6.0,96,0.00,,,0.00,meteohub,2013-04-17 09:23:00,
2013-04-17 05:28:00,50.2,48.7,30.14,NNE,27,3.0,6.0,95,0.00,,,0.00,meteohub,2013-04-17 09:28:00,
2013-04-17 05:33:00,50.4,49.3,30.15,NNE,22,8.0,8.0,96,0.00,,,0.00,meteohub,2013-04-17 09:33:00,
2013-04-17 05:38:00,51.1,51.1,30.15,NNW,341,7.0,8.0,100,0.00,,,0.00,meteohub,2013-04-17 09:38:00,
2013-04-17 05:43:00,51.1,51.1,30.15,NNW,341,7.0,9.0,100,0.00,,,0.00,meteohub,2013-04-17 09:43:00,
2013-04-17 05:48:00,51.1,51.1,30.15,North,-999,-999.0,9.0,100,0.00,,,0.00,meteohub,2013-04-17 09:48:00,
2013-04-17 07:25:00,51.4,44.8,30.18,North,-999,-999.0,-999.0,78,-99.99,,,0.00,meteohub,2013-04-17 11:25:00,
2013-04-17 07:30:00,51.6,43.9,30.18,North,-999,-999.0,-999.0,75,0.00,,,0.00,meteohub,2013-04-17 11:30:00,
2013-04-17 07:35:00,52.0,43.2,30.19,North,6,9.0,9.0,72,0.00,,,0.00,meteohub,2013-04-17 11:35:00,
2013-04-17 07:40:00,52.2,42.3,30.19,NNE,29,11.0,13.0,69,0.00,,,0.00,meteohub,2013-04-17 11:40:00,
2013-04-17 07:45:00,52.2,42.6,30.19,North,349,8.0,13.0,70,0.00,,,0.00,meteohub,2013-04-17 11:45:00,
2013-04-17 07:50:00,51.3,43.0,30.19,NNW,343,7.0,13.0,73,0.00,,,0.00,meteohub,2013-04-17 11:50:00,
2013-04-17 07:55:00,50.5,43.3,30.19,NNW,333,5.0,13.0,76,0.00,,,0.00,meteohub,2013-04-17 11:55:00,
2013-04-17 08:00:00,50.4,42.8,30.19,NNW,341,4.0,10.0,75,0.00,,,0.00,meteohub,2013-04-17 12:00:00,
2013-04-17 08:05:00,50.5,43.0,30.19,NNW,341,5.0,8.0,75,0.00,,,0.00,meteohub,2013-04-17 12:05:00,
2013-04-17 08:10:00,50.4,43.3,30.20,NNW,327,6.0,7.0,77,0.00,,,0.00,meteohub,2013-04-17 12:10:00,
2013-04-17 08:15:00,50.0,43.2,30.21,NNW,327,5.0,7.0,77,0.00,,,0.00,meteohub,2013-04-17 12:15:00,
2013-04-17 08:20:00,49.8,43.2,30.21,NW,325,6.0,7.0,78,0.00,,,0.00,meteohub,2013-04-17 12:20:00,
2013-04-17 08:25:00,50.2,43.0,30.21,NNW,330,6.0,7.0,76,0.00,,,0.00,meteohub,2013-04-17 12:25:00,
2013-04-17 08:30:00,50.4,43.3,30.22,NNW,347,5.0,7.0,77,0.00,,,0.00,meteohub,2013-04-17 12:30:00,
2013-04-17 08:35:00,50.2,43.5,30.21,NNW,342,6.0,7.0,78,0.00,,,0.00,meteohub,2013-04-17 12:35:00,
2013-04-17 08:40:00,50.0,43.7,30.21,NNW,335,6.0,7.0,79,0.00,,,0.00,meteohub,2013-04-17 12:40:00,
2013-04-17 08:45:00,49.6,43.0,30.21,NNW,342,6.0,7.0,78,0.00,,,0.00,meteohub,2013-04-17 12:45:00,
2013-04-17 08:50:00,49.6,43.0,30.21,NNW,343,6.0,7.0,78,0.00,,,0.00,meteohub,2013-04-17 12:50:00,
2013-04-17 08:55:00,49.8,43.0,30.21,North,349,6.0,7.0,77,0.00,,,0.00,meteohub,2013-04-17 12:55:00,
2013-04-17 09:00:00,50.2,43.3,30.22,North,349,9.0,9.0,77,0.00,,,0.00,meteohub,2013-04-17 13:00:00,
2013-04-17 09:05:00,50.0,43.2,30.22,NNW,348,6.0,10.0,77,0.00,,,0.00,meteohub,2013-04-17 13:05:00,
2013-04-17 09:10:00,50.2,42.6,30.22,NNW,345,8.0,10.0,75,0.00,,,0.00,meteohub,2013-04-17 13:10:00,
2013-04-17 09:15:00,50.4,43.2,30.22,North,4,9.0,10.0,76,0.00,,,0.00,meteohub,2013-04-17 13:15:00,
2013-04-17 09:20:00,50.7,42.1,30.22,NNW,340,9.0,11.0,72,0.00,,,0.00,meteohub,2013-04-17 13:20:00,
2013-04-17 09:25:00,51.3,42.3,30.22,NNW,346,10.0,13.0,71,0.00,,,0.00,meteohub,2013-04-17 13:25:00,
2013-04-17 09:30:00,51.6,42.1,30.22,NNE,30,10.0,15.0,70,0.00,,,0.00,meteohub,2013-04-17 13:30:00,
2013-04-17 09:35:00,52.2,41.5,30.22,North,356,12.0,15.0,67,0.00,,,0.00,meteohub,2013-04-17 13:35:00,
2013-04-17 09:40:00,52.2,42.3,30.23,North,359,14.0,16.0,69,0.00,,,0.00,meteohub,2013-04-17 13:40:00,
2013-04-17 09:45:00,51.4,43.2,30.23,NNW,338,6.0,16.0,73,0.00,,,0.00,meteohub,2013-04-17 13:45:00,
2013-04-17 09:51:00,51.3,43.0,30.23,North,0,8.0,14.0,73,0.00,,,0.00,meteohub,2013-04-17 13:51:00,
2013-04-17 09:56:00,51.1,43.7,30.23,NNW,330,6.0,14.0,76,0.00,,,0.00,meteohub,2013-04-17 13:56:00,
2013-04-17 10:01:00,50.9,43.0,30.23,NNW,344,5.0,9.0,74,0.00,,,0.00,meteohub,2013-04-17 14:01:00,
2013-04-17 10:06:00,51.4,42.8,30.23,NNW,343,7.0,8.0,72,0.00,,,0.00,meteohub,2013-04-17 14:06:00,
2013-04-17 10:11:00,52.3,42.4,30.23,NNW,347,8.0,8.0,69,0.00,,,0.00,meteohub,2013-04-17 14:11:00,
2013-04-17 10:16:00,52.9,41.4,30.23,NNW,344,7.0,9.0,65,0.00,,,0.00,meteohub,2013-04-17 14:16:00,
2013-04-17 10:21:00,53.2,41.7,30.22,NNW,334,7.0,10.0,65,0.00,,,0.00,meteohub,2013-04-17 14:21:00,
2013-04-17 10:26:00,53.4,42.3,30.22,NW,325,7.0,10.0,66,0.00,,,0.00,meteohub,2013-04-17 14:26:00,
2013-04-17 10:31:00,53.4,41.5,30.23,NW,326,6.0,9.0,64,0.00,,,0.00,meteohub,2013-04-17 14:31:00,
2013-04-17 10:36:00,53.8,41.0,30.23,NW,319,7.0,9.0,62,0.00,,,0.00,meteohub,2013-04-17 14:36:00,
2013-04-17 10:41:00,54.0,41.2,30.22,NW,323,7.0,8.0,62,0.00,,,0.00,meteohub,2013-04-17 14:41:00,
2013-04-17 10:46:00,54.0,40.8,30.23,NNW,330,5.0,8.0,61,0.00,,,0.00,meteohub,2013-04-17 14:46:00,
2013-04-17 10:52:00,53.2,42.3,30.23,NNW,328,5.0,7.0,66,0.00,,,0.00,meteohub,2013-04-17 14:52:00,
2013-04-17 10:57:00,52.9,42.3,30.22,NW,314,4.0,7.0,67,0.00,,,0.00,meteohub,2013-04-17 14:57:00,
2013-04-17 11:02:00,53.2,42.3,30.22,NW,308,8.0,8.0,66,0.00,,,0.00,meteohub,2013-04-17 15:02:00,
2013-04-17 11:07:00,53.8,41.0,30.22,NW,323,6.0,6.0,62,0.00,,,0.00,meteohub,2013-04-17 15:07:00,
2013-04-17 11:12:00,54.0,41.2,30.22,NW,314,7.0,8.0,62,0.00,,,0.00,meteohub,2013-04-17 15:12:00,
2013-04-17 11:17:00,54.0,42.1,30.22,NW,308,7.0,8.0,64,0.00,,,0.00,meteohub,2013-04-17 15:17:00,
2013-04-17 11:22:00,54.1,42.3,30.22,NW,309,7.0,8.0,64,0.00,,,0.00,meteohub,2013-04-17 15:22:00,
2013-04-17 11:27:00,54.1,42.6,30.22,NW,315,7.0,8.0,65,0.00,,,0.00,meteohub,2013-04-17 15:27:00,
2013-04-17 11:32:00,54.5,41.4,30.22,NW,311,7.0,8.0,61,0.00,,,0.00,meteohub,2013-04-17 15:32:00,
2013-04-17 11:37:00,54.7,41.0,30.21,NW,316,8.0,8.0,60,0.00,,,0.00,meteohub,2013-04-17 15:37:00,
2013-04-17 11:42:00,54.7,41.0,30.21,NW,312,6.0,9.0,60,0.00,,,0.00,meteohub,2013-04-17 15:42:00,
2013-04-17 11:47:00,55.0,41.0,30.21,NW,305,5.0,10.0,59,0.00,,,0.00,meteohub,2013-04-17 15:47:00,
2013-04-17 11:52:00,55.6,40.1,30.21,NW,311,8.0,10.0,56,0.00,,,0.00,meteohub,2013-04-17 15:52:00,
2013-04-17 11:56:00,55.8,40.8,30.21,NW,305,6.0,8.0,57,0.00,,,0.00,meteohub,2013-04-17 15:56:00,
2013-04-17 12:02:00,56.1,39.7,30.21,WNW,302,4.0,8.0,54,0.00,,,0.00,meteohub,2013-04-17 16:02:00,
2013-04-17 12:07:00,56.5,41.4,30.21,WNW,300,7.0,8.0,57,0.00,,,0.00,meteohub,2013-04-17 16:07:00,
2013-04-17 12:12:00,56.5,41.0,30.21,NW,308,8.0,8.0,56,0.00,,,0.00,meteohub,2013-04-17 16:12:00,
2013-04-17 12:17:00,56.7,40.6,30.20,NW,309,7.0,8.0,55,0.00,,,0.00,meteohub,2013-04-17 16:17:00,
2013-04-17 12:22:00,57.0,40.1,30.20,NW,312,9.0,9.0,53,0.00,,,0.00,meteohub,2013-04-17 16:22:00,
2013-04-17 12:27:00,57.2,39.7,30.20,NNW,335,7.0,10.0,52,0.00,,,0.00,meteohub,2013-04-17 16:27:00,
2013-04-17 12:32:00,57.2,40.6,30.20,NW,314,10.0,12.0,54,0.00,,,0.00,meteohub,2013-04-17 16:32:00,
2013-04-17 12:37:00,57.0,40.1,30.20,NW,304,7.0,12.0,53,0.00,,,0.00,meteohub,2013-04-17 16:37:00,
2013-04-17 12:42:00,57.0,39.6,30.20,NW,307,8.0,12.0,52,0.00,,,0.00,meteohub,2013-04-17 16:42:00,
2013-04-17 12:47:00,57.4,40.5,30.20,NW,308,8.0,10.0,53,0.00,,,0.00,meteohub,2013-04-17 16:47:00,
2013-04-17 12:52:00,57.6,41.5,30.20,NW,308,10.0,10.0,55,0.00,,,0.00,meteohub,2013-04-17 16:52:00,
2013-04-17 12:57:00,57.6,41.0,30.19,WNW,303,11.0,11.0,54,0.00,,,0.00,meteohub,2013-04-17 16:57:00,
2013-04-17 13:02:00,57.6,40.6,30.19,NW,309,10.0,12.0,53,0.00,,,0.00,meteohub,2013-04-17 17:02:00,
2013-04-17 13:07:00,57.7,40.3,30.19,NW,315,13.0,13.0,52,0.00,,,0.00,meteohub,2013-04-17 17:07:00,
2013-04-17 13:12:00,57.9,40.5,30.19,WNW,290,10.0,13.0,52,0.00,,,0.00,meteohub,2013-04-17 17:12:00,
2013-04-17 13:17:00,58.3,40.8,30.19,WNW,295,11.0,13.0,52,0.00,,,0.00,meteohub,2013-04-17 17:17:00,
2013-04-17 13:22:00,58.5,40.8,30.19,WNW,299,9.0,13.0,52,0.00,,,0.00,meteohub,2013-04-17 17:22:00,
2013-04-17 13:27:00,58.8,40.3,30.19,WNW,302,8.0,13.0,50,0.00,,,0.00,meteohub,2013-04-17 17:27:00,
2013-04-17 13:32:00,59.2,39.6,30.19,WNW,302,11.0,13.0,48,0.00,,,0.00,meteohub,2013-04-17 17:32:00,
2013-04-17 13:37:00,59.2,40.1,30.19,WNW,303,12.0,13.0,49,0.00,,,0.00,meteohub,2013-04-17 17:37:00,
2013-04-17 13:42:00,59.2,40.1,30.19,NW,305,10.0,13.0,49,0.00,,,0.00,meteohub,2013-04-17 17:42:00,
2013-04-17 13:47:00,59.2,39.6,30.19,NW,308,11.0,13.0,48,0.00,,,0.00,meteohub,2013-04-17 17:47:00,
2013-04-17 13:52:00,59.5,39.9,30.19,NW,308,9.0,13.0,48,0.00,,,0.00,meteohub,2013-04-17 17:52:00,
2013-04-17 13:57:00,59.7,38.8,30.19,WNW,299,11.0,12.0,46,0.00,,,0.00,meteohub,2013-04-17 17:57:00,
2013-04-17 14:02:00,59.5,38.1,30.19,WNW,302,9.0,12.0,45,0.00,,,0.00,meteohub,2013-04-17 18:02:00,
2013-04-17 14:07:00,59.9,37.9,30.19,NW,308,9.0,12.0,44,0.00,,,0.00,meteohub,2013-04-17 18:07:00,
2013-04-17 14:12:00,60.3,37.8,30.19,WNW,295,10.0,11.0,43,0.00,,,0.00,meteohub,2013-04-17 18:12:00,
2013-04-17 14:17:00,60.4,37.2,30.19,NW,304,12.0,12.0,42,0.00,,,0.00,meteohub,2013-04-17 18:17:00,
2013-04-17 14:22:00,60.8,36.9,30.19,WNW,302,10.0,13.0,41,0.00,,,0.00,meteohub,2013-04-17 18:22:00,
2013-04-17 14:27:00,61.2,36.0,30.19,WNW,291,8.0,13.0,39,0.00,,,0.00,meteohub,2013-04-17 18:27:00,
2013-04-17 14:32:00,62.1,40.5,30.19,West,278,7.0,13.0,45,0.00,,,0.00,meteohub,2013-04-17 18:32:00,
2013-04-17 14:37:00,62.1,40.5,30.19,NW,308,8.0,11.0,45,0.00,,,0.00,meteohub,2013-04-17 18:37:00,
2013-04-17 14:42:00,61.5,38.8,30.19,WNW,301,11.0,11.0,43,0.00,,,0.00,meteohub,2013-04-17 18:42:00,
2013-04-17 14:47:00,61.5,37.0,30.19,WNW,302,11.0,11.0,40,0.00,,,0.00,meteohub,2013-04-17 18:47:00,
2013-04-17 14:52:00,61.3,38.1,30.19,NW,308,9.0,13.0,42,0.00,,,0.00,meteohub,2013-04-17 18:52:00,
2013-04-17 14:57:00,61.3,39.2,30.19,WNW,303,10.0,13.0,44,0.00,,,0.00,meteohub,2013-04-17 18:57:00,
2013-04-17 15:02:00,61.7,38.3,30.19,WNW,288,9.0,13.0,42,0.00,,,0.00,meteohub,2013-04-17 19:02:00,
2013-04-17 15:07:00,61.7,37.2,30.19,WNW,303,10.0,11.0,40,0.00,,,0.00,meteohub,2013-04-17 19:07:00,
2013-04-17 15:12:00,62.2,37.6,30.19,WNW,293,9.0,12.0,40,0.00,,,0.00,meteohub,2013-04-17 19:12:00,
2013-04-17 15:17:00,62.1,41.0,30.19,WNW,290,7.0,12.0,46,0.00,,,0.00,meteohub,2013-04-17 19:17:00,
2013-04-17 15:22:00,61.5,39.9,30.19,WNW,287,7.0,12.0,45,0.00,,,0.00,meteohub,2013-04-17 19:22:00,
2013-04-17 15:27:00,61.2,40.3,30.19,WNW,294,8.0,11.0,46,0.00,,,0.00,meteohub,2013-04-17 19:27:00,
2013-04-17 15:32:00,61.5,39.4,30.19,WNW,290,8.0,10.0,44,0.00,,,0.00,meteohub,2013-04-17 19:32:00,
2013-04-17 15:37:00,61.5,41.2,30.19,West,274,6.0,10.0,47,0.00,,,0.00,meteohub,2013-04-17 19:37:00,
2013-04-17 15:42:00,61.7,40.1,30.19,WNW,295,7.0,10.0,45,0.00,,,0.00,meteohub,2013-04-17 19:42:00,
2013-04-17 15:47:00,61.3,39.7,30.19,WNW,290,11.0,11.0,45,0.00,,,0.00,meteohub,2013-04-17 19:47:00,
2013-04-17 15:52:00,61.0,40.1,30.19,West,280,10.0,11.0,46,0.00,,,0.00,meteohub,2013-04-17 19:52:00,
2013-04-17 15:57:00,61.2,39.7,30.19,WNW,298,10.0,12.0,45,0.00,,,0.00,meteohub,2013-04-17 19:57:00,
2013-04-17 16:02:00,61.2,40.8,30.19,West,274,11.0,12.0,47,0.00,,,0.00,meteohub,2013-04-17 20:02:00,
2013-04-17 16:07:00,61.0,41.2,30.19,WNW,295,11.0,12.0,48,0.00,,,0.00,meteohub,2013-04-17 20:07:00,
2013-04-17 16:12:00,60.4,41.2,30.19,WNW,288,13.0,13.0,49,0.00,,,0.00,meteohub,2013-04-17 20:12:00,
2013-04-17 16:17:00,60.8,40.5,30.19,WNW,302,11.0,13.0,47,0.00,,,0.00,meteohub,2013-04-17 20:17:00,
2013-04-17 16:22:00,61.0,40.1,30.19,WNW,283,10.0,13.0,46,0.00,,,0.00,meteohub,2013-04-17 20:22:00,
2013-04-17 16:27:00,61.5,39.4,30.19,NW,312,10.0,13.0,44,0.00,,,0.00,meteohub,2013-04-17 20:27:00,
2013-04-17 16:32:00,61.9,39.7,30.19,NW,315,10.0,12.0,44,0.00,,,0.00,meteohub,2013-04-17 20:32:00,
2013-04-17 16:37:00,62.1,40.5,30.19,WNW,292,12.0,12.0,45,0.00,,,0.00,meteohub,2013-04-17 20:37:00,
2013-04-17 16:42:00,62.2,39.4,30.19,WNW,285,13.0,13.0,43,0.00,,,0.00,meteohub,2013-04-17 20:42:00,
2013-04-17 16:47:00,62.2,39.4,30.19,West,269,11.0,13.0,43,0.00,,,0.00,meteohub,2013-04-17 20:47:00,
2013-04-17 16:52:00,62.2,37.6,30.19,WNW,284,11.0,15.0,40,0.00,,,0.00,meteohub,2013-04-17 20:52:00,
2013-04-17 16:58:00,62.4,38.5,30.19,West,278,13.0,15.0,41,0.00,,,0.00,meteohub,2013-04-17 20:58:00,
2013-04-17 17:03:00,62.4,37.8,30.19,NW,319,11.0,14.0,40,0.00,,,0.00,meteohub,2013-04-17 21:03:00,
2013-04-17 17:08:00,62.1,38.1,30.19,NW,308,8.0,14.0,41,0.00,,,0.00,meteohub,2013-04-17 21:08:00,
2013-04-17 17:13:00,61.9,39.2,30.19,WNW,298,6.0,14.0,43,0.00,,,0.00,meteohub,2013-04-17 21:13:00,
2013-04-17 17:18:00,61.9,40.3,30.19,WNW,284,9.0,13.0,45,0.00,,,0.00,meteohub,2013-04-17 21:18:00,
2013-04-17 17:23:00,61.7,40.6,30.20,WNW,297,11.0,12.0,46,0.00,,,0.00,meteohub,2013-04-17 21:23:00,
2013-04-17 17:28:00,62.1,38.1,30.20,West,278,11.0,13.0,41,0.00,,,0.00,meteohub,2013-04-17 21:28:00,
2013-04-17 17:33:00,62.2,37.6,30.20,WNW,302,13.0,14.0,40,0.00,,,0.00,meteohub,2013-04-17 21:33:00,
2013-04-17 17:38:00,62.2,38.3,30.20,WNW,300,11.0,14.0,41,0.00,,,0.00,meteohub,2013-04-17 21:38:00,
2013-04-17 17:43:00,61.9,38.5,30.21,WNW,284,12.0,15.0,42,0.00,,,0.00,meteohub,2013-04-17 21:43:00,
2013-04-17 17:48:00,61.7,39.0,30.21,WNW,300,10.0,15.0,43,0.00,,,0.00,meteohub,2013-04-17 21:48:00,
2013-04-17 17:53:00,62.1,36.1,30.21,WNW,288,14.0,15.0,38,0.00,,,0.00,meteohub,2013-04-17 21:53:00,
2013-04-17 17:58:00,61.9,39.2,30.21,WNW,294,12.0,17.0,43,0.00,,,0.00,meteohub,2013-04-17 21:58:00,
2013-04-17 18:03:00,61.7,38.3,30.22,NW,314,13.0,17.0,42,0.00,,,0.00,meteohub,2013-04-17 22:03:00,
2013-04-17 18:08:00,61.9,36.7,30.22,WNW,288,10.0,17.0,39,0.00,,,0.00,meteohub,2013-04-17 22:08:00,
2013-04-17 18:13:00,61.5,39.9,30.22,WNW,292,16.0,18.0,45,0.00,,,0.00,meteohub,2013-04-17 22:13:00,
2013-04-17 18:18:00,61.2,39.7,30.22,WNW,285,13.0,18.0,45,0.00,,,0.00,meteohub,2013-04-17 22:18:00,
2013-04-17 18:23:00,60.6,39.2,30.22,WNW,294,13.0,18.0,45,0.00,,,0.00,meteohub,2013-04-17 22:23:00,
2013-04-17 18:28:00,60.6,39.2,30.22,WNW,287,12.0,18.0,45,0.00,,,0.00,meteohub,2013-04-17 22:28:00,
2013-04-17 18:33:00,60.4,39.0,30.22,West,278,14.0,17.0,45,0.00,,,0.00,meteohub,2013-04-17 22:33:00,
2013-04-17 18:38:00,60.4,38.5,30.22,WNW,290,12.0,16.0,44,0.00,,,0.00,meteohub,2013-04-17 22:38:00,
2013-04-17 18:43:00,60.4,39.0,30.22,WNW,298,12.0,16.0,45,0.00,,,0.00,meteohub,2013-04-17 22:43:00,
2013-04-17 18:48:00,60.8,36.9,30.22,WNW,288,13.0,16.0,41,0.00,,,0.00,meteohub,2013-04-17 22:48:00,
2013-04-17 18:53:00,61.0,37.0,30.22,WNW,286,11.0,16.0,41,0.00,,,0.00,meteohub,2013-04-17 22:53:00,
2013-04-17 18:58:00,60.6,37.4,30.23,WNW,290,13.0,14.0,42,0.00,,,0.00,meteohub,2013-04-17 22:58:00,
2013-04-17 19:03:00,60.4,38.5,30.23,West,278,13.0,15.0,44,0.00,,,0.00,meteohub,2013-04-17 23:03:00,
2013-04-17 19:08:00,60.1,36.9,30.23,WNW,297,10.0,17.0,42,0.00,,,0.00,meteohub,2013-04-17 23:08:00,
2013-04-17 19:13:00,60.1,36.9,30.24,WNW,288,10.0,17.0,42,0.00,,,0.00,meteohub,2013-04-17 23:13:00,
2013-04-17 19:18:00,59.5,38.7,30.24,West,280,5.0,16.0,46,0.00,,,0.00,meteohub,2013-04-17 23:18:00,
2013-04-17 19:23:00,58.5,45.1,30.25,SSE,156,5.0,16.0,61,0.00,,,0.00,meteohub,2013-04-17 23:23:00,
2013-04-17 19:28:00,56.7,46.2,30.25,SSE,163,4.0,13.0,68,0.00,,,0.00,meteohub,2013-04-17 23:28:00,
2013-04-17 19:33:00,55.2,46.0,30.25,SSE,150,8.0,11.0,71,0.00,,,0.00,meteohub,2013-04-17 23:33:00,
2013-04-17 19:38:00,54.1,45.7,30.25,SSE,165,9.0,12.0,73,0.00,,,0.00,meteohub,2013-04-17 23:38:00,
2013-04-17 19:43:00,53.8,45.7,30.25,SSE,166,8.0,12.0,74,0.00,,,0.00,meteohub,2013-04-17 23:43:00,
2013-04-17 19:48:00,53.4,46.0,30.25,South,169,9.0,12.0,76,0.00,,,0.00,meteohub,2013-04-17 23:48:00,
2013-04-17 19:53:00,53.4,46.4,30.26,SSE,165,8.0,10.0,77,0.00,,,0.00,meteohub,2013-04-17 23:53:00,
2013-04-17 19:58:00,53.2,45.9,30.26,South,173,10.0,10.0,76,0.00,,,0.00,meteohub,2013-04-17 23:58:00,
2013-04-17 20:03:00,53.2,45.5,30.26,SSE,165,10.0,10.0,75,0.00,,,0.00,meteohub,2013-04-18 00:03:00,
2013-04-17 20:08:00,53.1,45.7,30.27,ESE,122,8.0,12.0,76,0.00,,,0.00,meteohub,2013-04-18 00:08:00,
2013-04-17 20:13:00,52.9,44.8,30.27,SSE,166,9.0,12.0,74,0.00,,,0.00,meteohub,2013-04-18 00:13:00,
2013-04-17 20:18:00,52.9,45.1,30.27,SSE,162,14.0,14.0,75,0.00,,,0.00,meteohub,2013-04-18 00:18:00,
2013-04-17 20:23:00,52.9,44.4,30.27,SSE,152,10.0,14.0,73,0.00,,,0.00,meteohub,2013-04-18 00:23:00,
2013-04-17 20:29:00,53.1,44.6,30.27,SE,146,6.0,15.0,73,0.00,,,0.00,meteohub,2013-04-18 00:29:00,
2013-04-17 20:34:00,53.1,44.2,30.27,South,169,10.0,15.0,72,0.00,,,0.00,meteohub,2013-04-18 00:34:00,
2013-04-17 20:39:00,53.1,44.6,30.28,SSE,155,9.0,13.0,73,0.00,,,0.00,meteohub,2013-04-18 00:39:00,
2013-04-17 20:44:00,52.7,44.6,30.27,SSE,164,13.0,13.0,74,0.00,,,0.00,meteohub,2013-04-18 00:44:00,
2013-04-17 20:49:00,52.5,44.8,30.28,South,173,14.0,14.0,75,0.00,,,0.00,meteohub,2013-04-18 00:49:00,
2013-04-17 20:54:00,52.3,44.2,30.28,South,172,12.0,15.0,74,0.00,,,0.00,meteohub,2013-04-18 00:54:00,
2013-04-17 20:59:00,52.2,44.8,30.28,South,170,13.0,16.0,76,0.00,,,0.00,meteohub,2013-04-18 00:59:00,
2013-04-17 21:04:00,51.8,45.1,30.29,SSE,155,12.0,16.0,78,0.00,,,0.00,meteohub,2013-04-18 01:04:00,
2013-04-17 21:09:00,51.6,45.7,30.29,South,175,12.0,15.0,80,0.00,,,0.00,meteohub,2013-04-18 01:09:00,
2013-04-17 21:14:00,51.4,45.9,30.29,SE,146,12.0,15.0,81,0.00,,,0.00,meteohub,2013-04-18 01:14:00,
2013-04-17 21:19:00,51.3,46.2,30.30,SSE,156,14.0,15.0,83,0.00,,,0.00,meteohub,2013-04-18 01:19:00,
2013-04-17 21:24:00,51.3,45.7,30.30,SSE,165,14.0,14.0,81,0.00,,,0.00,meteohub,2013-04-18 01:24:00,
2013-04-17 21:29:00,51.1,44.4,30.30,SSE,163,17.0,18.0,78,0.00,,,0.00,meteohub,2013-04-18 01:29:00,
2013-04-17 21:34:00,50.9,44.2,30.30,SSE,162,17.0,18.0,78,0.00,,,0.00,meteohub,2013-04-18 01:34:00,
2013-04-17 21:39:00,50.7,44.1,30.30,SSE,160,15.0,18.0,78,0.00,,,0.00,meteohub,2013-04-18 01:39:00,
2013-04-17 21:44:00,50.7,44.4,30.30,SSE,158,13.0,19.0,79,0.00,,,0.00,meteohub,2013-04-18 01:44:00,
2013-04-17 21:49:00,50.7,43.5,30.31,SSE,159,13.0,19.0,76,0.00,,,0.00,meteohub,2013-04-18 01:49:00,
2013-04-17 21:54:00,50.7,43.7,30.31,SSE,168,13.0,17.0,77,0.00,,,0.00,meteohub,2013-04-18 01:54:00,
2013-04-17 21:59:00,50.5,43.5,30.31,South,170,12.0,16.0,77,0.00,,,0.00,meteohub,2013-04-18 01:59:00,
2013-04-17 22:04:00,50.5,43.5,30.31,SSE,158,13.0,16.0,77,0.00,,,0.00,meteohub,2013-04-18 02:04:00,
2013-04-17 22:09:00,50.5,43.5,30.32,SSE,156,12.0,16.0,77,0.00,,,0.00,meteohub,2013-04-18 02:09:00,
2013-04-17 22:14:00,50.5,43.0,30.32,SSE,158,11.0,15.0,75,0.00,,,0.00,meteohub,2013-04-18 02:14:00,
2013-04-17 22:19:00,50.4,43.7,30.32,SSE,159,12.0,15.0,78,0.00,,,0.00,meteohub,2013-04-18 02:19:00,
2013-04-17 22:24:00,50.4,43.3,30.32,SSE,164,13.0,15.0,77,0.00,,,0.00,meteohub,2013-04-18 02:24:00,
2013-04-17 22:29:00,50.4,43.2,30.33,SE,126,8.0,14.0,76,0.00,,,0.00,meteohub,2013-04-18 02:29:00,
2013-04-17 22:34:00,50.2,43.3,30.32,SSE,148,8.0,14.0,77,0.00,,,0.00,meteohub,2013-04-18 02:34:00,
2013-04-17 22:39:00,50.2,43.0,30.32,SE,144,10.0,14.0,76,0.00,,,0.00,meteohub,2013-04-18 02:39:00,
2013-04-17 22:44:00,50.2,42.6,30.32,SSE,156,10.0,13.0,75,0.00,,,0.00,meteohub,2013-04-18 02:44:00,
2013-04-17 22:49:00,50.2,42.3,30.32,SSE,150,9.0,12.0,74,0.00,,,0.00,meteohub,2013-04-18 02:49:00,
2013-04-17 22:54:00,50.2,43.3,30.32,SSE,155,7.0,13.0,77,0.00,,,0.00,meteohub,2013-04-18 02:54:00,
2013-04-17 22:59:00,49.8,42.6,30.32,SSE,162,4.0,13.0,76,0.00,,,0.00,meteohub,2013-04-18 02:59:00,
2013-04-17 23:04:00,49.6,42.4,30.32,SSE,151,8.0,11.0,76,0.00,,,0.00,meteohub,2013-04-18 03:04:00,
2013-04-17 23:09:00,49.5,42.6,30.32,SE,143,4.0,9.0,77,0.00,,,0.00,meteohub,2013-04-18 03:09:00,
2013-04-17 23:14:00,49.3,43.0,30.32,SSE,159,6.0,9.0,79,0.00,,,0.00,meteohub,2013-04-18 03:14:00,
2013-04-17 23:19:00,49.5,43.2,30.32,SSE,158,8.0,9.0,79,0.00,,,0.00,meteohub,2013-04-18 03:19:00,
2013-04-17 23:24:00,49.6,43.3,30.32,SSE,152,8.0,9.0,79,0.00,,,0.00,meteohub,2013-04-18 03:24:00,
2013-04-17 23:29:00,49.6,43.0,30.32,SSE,155,7.0,10.0,78,0.00,,,0.00,meteohub,2013-04-18 03:29:00,
2013-04-17 23:34:00,49.6,43.0,30.32,SSE,158,7.0,10.0,78,0.00,,,0.00,meteohub,2013-04-18 03:34:00,
2013-04-17 23:39:00,49.6,42.8,30.33,SE,125,6.0,10.0,77,0.00,,,0.00,meteohub,2013-04-18 03:39:00,
2013-04-17 23:44:00,49.3,42.8,30.32,SSE,163,5.0,10.0,78,0.00,,,0.00,meteohub,2013-04-18 03:44:00,
2013-04-17 23:50:00,49.5,42.3,30.33,SE,131,5.0,9.0,76,0.00,,,0.00,meteohub,2013-04-18 03:50:00,
2013-04-17 23:55:00,49.3,42.4,30.34,ESE,121,3.0,10.0,77,0.00,,,0.00,meteohub,2013-04-18 03:55:00,